Weather History for Grants-Milan, NM

Change the Weather History Date:

Thursday, July 4, 2013

  Actual Average Record
Temperature  
Mean Temperature 71 °F -  
Max Temperature 88 °F 88 °F 101 °F (1989)
Min Temperature 54 °F 52 °F 44 °F (1956)
Cooling Degree Days 6    
Growing Degree Days 21 (Base 50)    
Moisture  
Dew Point 44 °F    
Average Humidity 43    
Maximum Humidity 80    
Minimum Humidity 15    
Precipitation  
Precipitation 0.00 in - - ()
Sea Level Pressure  
Sea Level Pressure 30.13 in    
Wind  
Wind Speed 6 mph (SSE)    
Max Wind Speed 18 mph    
Max Gust Speed 25 mph    
Visibility 10 miles    
Events Thunderstorm    
Averages and records for this station are not official NWS values.
T = Trace of Precipitation, MM = Missing Value Source: NWS Daily Summary

Daily Weather History Graph

Daily Weather History Graph

Search for Another Location

Airport:

Trip Planner

Search our weather history database for the weather conditions in past years. The results will help you decide how hot, cold, wet, or windy it might be!

Date:

Astronomy

Jul. 04, 2013 Rise Set
Actual Time 6:02 AM MDT 8:29 PM MDT
Civil Twilight 5:32 AM MDT 8:59 PM MDT
Nautical Twilight 4:56 AM MDT 9:35 PM MDT
Astronomical Twilight 4:16 AM MDT 10:15 PM MDT
Moon 3:18 AM MDT (7/4) 5:39 PM MDT (7/4)
Length of Visible Light 15h 26m
Length of Day
14h 27m
Waning Crescent, 11% of the Moon is Illuminated
Jul 4
Waning Crescent
Jul 8
New
Jul 15
First Quarter
Jul 22
Full
Jul 29
Last Quarter

Hourly Weather History & Observations

Time (MDT) Temp. Dew Point Humidity Pressure Visibility Wind Dir Wind Speed Gust Speed Precip Events Conditions
12:15 AM 62.6 °F 53.1 °F 71% 30.19 in 10.0 mi South 6.9 mph - N/A Thunderstorm Scattered Clouds
12:35 AM 63.7 °F 50.4 °F 62% 30.18 in 10.0 mi SSE 8.1 mph - N/A   Clear
12:55 AM 62.2 °F 50.4 °F 65% 30.17 in 10.0 mi South 9.2 mph - N/A   Clear
1:15 AM 60.1 °F 50.9 °F 72% 30.16 in 10.0 mi SE 6.9 mph - N/A   Clear
1:35 AM 58.3 °F 50.7 °F 76% 30.15 in 10.0 mi SSE 4.6 mph - N/A   Clear
1:55 AM 58.5 °F 50.4 °F 74% 30.15 in 10.0 mi SSE 4.6 mph - N/A   Clear
2:15 AM 59.0 °F 50.5 °F 73% 30.15 in 10.0 mi South 5.8 mph - N/A   Clear
2:35 AM 59.4 °F 50.7 °F 73% 30.15 in 10.0 mi South 5.8 mph - N/A   Clear
2:55 AM 58.5 °F 50.5 °F 75% 30.15 in 10.0 mi SSE 3.5 mph - N/A   Clear
3:15 AM 57.0 °F 50.0 °F 77% 30.15 in 10.0 mi SSE 3.5 mph - N/A   Clear
3:35 AM 57.9 °F 50.0 °F 75% 30.15 in 10.0 mi SE 4.6 mph - N/A   Clear
3:55 AM 59.7 °F 49.8 °F 70% 30.14 in 10.0 mi Calm Calm - N/A   Clear
4:15 AM 57.2 °F 49.5 °F 75% 30.14 in 10.0 mi Calm Calm - N/A   Clear
4:35 AM 57.2 °F 49.5 °F 75% 30.14 in 10.0 mi Calm Calm - N/A   Clear
4:55 AM 57.0 °F 48.9 °F 74% 30.14 in 10.0 mi Calm Calm - N/A   Clear
5:15 AM 55.4 °F 49.1 °F 79% 30.14 in 10.0 mi Calm Calm - N/A   Clear
5:35 AM 54.7 °F 48.4 °F 79% 30.14 in 10.0 mi SSE 4.6 mph - N/A   Clear
5:55 AM 58.5 °F 48.2 °F 69% 30.14 in 10.0 mi South 4.6 mph - N/A   Clear
6:15 AM 55.8 °F 47.8 °F 75% 30.14 in 10.0 mi SSE 4.6 mph - N/A   Clear
6:35 AM 55.0 °F 47.5 °F 76% 30.14 in 10.0 mi Calm Calm - N/A   Clear
6:55 AM 56.8 °F 49.1 °F 75% 30.15 in 10.0 mi Calm Calm - N/A   Clear
7:15 AM 56.3 °F 50.2 °F 80% 30.16 in 10.0 mi NNW 4.6 mph - N/A   Clear
7:35 AM 58.5 °F 49.8 °F 73% 30.15 in 10.0 mi Calm Calm - N/A   Clear
7:55 AM 59.9 °F 49.6 °F 69% 30.16 in 10.0 mi Calm Calm - N/A   Clear
8:15 AM 62.6 °F 49.1 °F 61% 30.17 in 10.0 mi Calm Calm - N/A   Clear
8:35 AM 64.8 °F 49.5 °F 58% 30.18 in 10.0 mi NNW 4.6 mph - N/A   Clear
8:55 AM 66.2 °F 48.9 °F 54% 30.17 in 10.0 mi Calm Calm - N/A   Clear
9:15 AM 68.0 °F 47.7 °F 48% 30.16 in 10.0 mi Calm Calm - N/A   Clear
9:35 AM 70.0 °F 48.0 °F 46% 30.17 in 10.0 mi Calm Calm - N/A   Clear
9:55 AM 72.1 °F 47.8 °F 42% 30.16 in 10.0 mi NE 3.5 mph - N/A   Clear
10:15 AM 73.4 °F 47.3 °F 39% 30.16 in 10.0 mi Calm Calm - N/A   Clear
10:35 AM 75.4 °F 45.9 °F 35% 30.16 in 10.0 mi Calm Calm - N/A   Clear
10:55 AM 77.2 °F 45.1 °F 32% 30.15 in 10.0 mi NW 3.5 mph - N/A   Clear
11:15 AM 79.2 °F 43.3 °F 28% 30.15 in 10.0 mi North 3.5 mph - N/A   Clear
11:35 AM 80.4 °F 41.9 °F 25% 30.14 in 10.0 mi Calm Calm - N/A   Clear
11:55 AM 82.4 °F 38.8 °F 21% 30.14 in 10.0 mi NNW 3.5 mph - N/A   Clear
12:15 PM 84.6 °F 33.3 °F 16% 30.14 in 10.0 mi North 9.2 mph - N/A   Clear
12:35 PM 85.8 °F 32.4 °F 15% 30.14 in 10.0 mi NNE 8.1 mph - N/A   Clear
12:55 PM 84.6 °F 33.3 °F 16% 30.12 in 10.0 mi Calm Calm - N/A   Clear
1:15 PM 86.0 °F 39.7 °F 19% 30.12 in 10.0 mi South 5.8 mph - N/A   Clear
1:35 PM 87.4 °F 41.7 °F 20% 30.12 in 10.0 mi ESE 17.3 mph 20.7 mph N/A   Scattered Clouds
1:55 PM 86.7 °F 39.6 °F 19% 30.11 in 10.0 mi ESE 10.4 mph 16.1 mph N/A   Scattered Clouds
2:15 PM 88.2 °F 40.3 °F 19% 30.11 in 10.0 mi SE 11.5 mph 18.4 mph N/A   Scattered Clouds
2:35 PM 86.7 °F 39.4 °F 19% 30.10 in 10.0 mi East 4.6 mph - N/A   Scattered Clouds
2:55 PM 87.6 °F 40.1 °F 19% 30.10 in 10.0 mi East 10.4 mph 18.4 mph N/A   Clear
3:15 PM 87.6 °F 38.5 °F 18% 30.09 in 10.0 mi East 12.7 mph 20.7 mph N/A   Clear
3:35 PM 88.7 °F 37.8 °F 17% 30.09 in 10.0 mi ESE 15.0 mph 19.6 mph N/A   Clear
3:55 PM 86.2 °F 38.5 °F 18% 30.08 in 10.0 mi SSE 11.5 mph 18.4 mph N/A   Clear
4:15 PM 87.3 °F 40.1 °F 19% 30.08 in 10.0 mi SSE 9.2 mph 17.3 mph N/A   Clear
4:35 PM 86.4 °F 39.4 °F 19% 30.07 in 10.0 mi ESE 15.0 mph 20.7 mph N/A   Clear
4:55 PM 86.0 °F 38.7 °F 19% 30.07 in 10.0 mi ESE 12.7 mph 17.3 mph N/A   Clear
5:15 PM 86.5 °F 39.0 °F 19% 30.06 in 10.0 mi SE 11.5 mph - N/A   Clear
5:35 PM 85.3 °F 38.1 °F 19% 30.06 in 10.0 mi SE 9.2 mph 17.3 mph N/A   Clear
5:55 PM 86.4 °F 37.9 °F 18% 30.06 in 10.0 mi SE 11.5 mph - N/A   Clear
6:15 PM 86.2 °F 37.8 °F 18% 30.06 in 10.0 mi SSE 10.4 mph - N/A   Clear
6:35 PM 85.8 °F 37.0 °F 18% 30.06 in 10.0 mi SSE 9.2 mph - N/A   Clear
6:55 PM 85.1 °F 37.4 °F 18% 30.06 in 10.0 mi SE 12.7 mph - N/A   Clear
7:15 PM 84.6 °F 37.4 °F 19% 30.06 in 10.0 mi SSE 12.7 mph - N/A   Clear
7:35 PM 82.6 °F 41.0 °F 23% 30.07 in 10.0 mi SSW 13.8 mph 20.7 mph N/A   Clear
7:55 PM 81.1 °F 41.9 °F 25% 30.07 in 10.0 mi South 10.4 mph - N/A   Clear
8:15 PM 79.7 °F 41.9 °F 26% 30.08 in 10.0 mi South 8.1 mph - N/A   Clear
8:35 PM 78.4 °F 41.9 °F 27% 30.09 in 10.0 mi SSW 10.4 mph - N/A   Clear
8:55 PM 77.2 °F 41.9 °F 28% 30.09 in 10.0 mi SSW 9.2 mph - N/A   Clear
9:15 PM 76.1 °F 41.9 °F 29% 30.09 in 10.0 mi SSW 8.1 mph - N/A   Clear
9:35 PM 75.4 °F 41.9 °F 30% 30.11 in 10.0 mi SW 9.2 mph - N/A   Clear
9:55 PM 76.1 °F 43.2 °F 31% 30.11 in 10.0 mi WSW 17.3 mph 21.9 mph N/A   Clear
10:15 PM 75.2 °F 44.2 °F 33% 30.12 in 10.0 mi WSW 18.4 mph 21.9 mph N/A   Scattered Clouds
10:35 PM 74.7 °F 45.3 °F 35% 30.12 in 10.0 mi SW 13.8 mph 25.3 mph N/A   Mostly Cloudy
10:55 PM 73.6 °F 46.6 °F 38% 30.13 in 10.0 mi SW 12.7 mph 17.3 mph N/A   Scattered Clouds
11:15 PM 72.7 °F 47.1 °F 40% 30.15 in 10.0 mi East 8.1 mph - N/A   Scattered Clouds
11:35 PM 73.4 °F 46.0 °F 38% 30.14 in 10.0 mi South 4.6 mph - N/A   Mostly Cloudy
11:55 PM 72.9 °F 45.5 °F 38% 30.14 in 10.0 mi Calm Calm - N/A   Scattered Clouds